Weather History for Lancaster, SC

Change the Weather History Date:

Tuesday, November 20, 2012

  Actual Average (KUZA) Record (KUZA)
Temperature  
Mean Temperature 50 °F -  
Max Temperature 62 °F 62 °F 77 °F (1991)
Min Temperature 37 °F 42 °F 18 °F (1951)
Degree Days  
Heating Degree Days 16    
Moisture  
Dew Point 43 °F    
Average Humidity 85    
Maximum Humidity 100    
Minimum Humidity 48    
Precipitation  
Precipitation 0.00 in - - ()
Sea Level Pressure  
Sea Level Pressure 30.13 in    
Wind  
Wind Speed 3 mph (NNE)    
Max Wind Speed 9 mph    
Max Gust Speed -    
Visibility 10 miles    
Events      
Averages and records for this station are not official NWS values.
T = Trace of Precipitation, MM = Missing Value Source: NWS Daily Summary

Daily Weather History Graph

Daily Weather History Graph

Search for Another Location

Airport:

Trip Planner

Search our weather history database for the weather conditions in past years. The results will help you decide how hot, cold, wet, or windy it might be!

Date:

Astronomy

Nov. 20, 2012 Rise Set
Actual Time 7:02 AM EST 5:15 PM EST
Civil Twilight 6:35 AM EST 5:42 PM EST
Nautical Twilight 6:04 AM EST 6:13 PM EST
Astronomical Twilight 5:34 AM EST 6:43 PM EST
Moon 12:44 PM EST (11/20) No Moon Set
Length of Visible Light 11h 07m
Length of Day
10h 12m
Waxing Crescent, 51% of the Moon is Illuminated
Nov 20
Waxing Crescent
Nov 28
Full
Dec 6
Last Quarter
Dec 13
New
Dec 20
First Quarter

Hourly Weather History & Observations

Time (EST) Temp. Windchill Dew Point Humidity Pressure Visibility Wind Dir Wind Speed Gust Speed Precip Events Conditions
12:15 AM 44.6 °F 43.1 °F 44.6 °F 100% 30.19 in 10.0 mi NNE 3.5 mph - N/A   Clear
12:35 AM 44.6 °F 42.2 °F 44.6 °F 100% 30.19 in 10.0 mi NNW 4.6 mph - N/A   Clear
12:55 AM 44.6 °F - 44.6 °F 100% 30.18 in 10.0 mi Calm Calm - N/A   Clear
1:15 AM 44.6 °F 42.2 °F 44.6 °F 100% 30.18 in 10.0 mi NNE 4.6 mph - N/A   Clear
1:35 AM 42.8 °F 40.1 °F 42.8 °F 100% 30.17 in 10.0 mi NE 4.6 mph - N/A   Clear
1:55 AM 42.8 °F 41.1 °F 42.8 °F 100% 30.17 in 10.0 mi NNE 3.5 mph - N/A   Clear
2:15 AM 41.0 °F - 41.0 °F 100% 30.17 in 10.0 mi Calm Calm - N/A   Clear
2:35 AM 42.8 °F 40.1 °F 42.8 °F 100% 30.16 in 10.0 mi North 4.6 mph - N/A   Clear
3:15 AM 44.6 °F 43.1 °F 44.6 °F 100% 30.17 in 10.0 mi North 3.5 mph - N/A   Clear
3:35 AM 41.0 °F - 41.0 °F 100% 30.16 in 10.0 mi Calm Calm - N/A   Clear
7:15 AM 39.2 °F - 39.2 °F 100% 30.18 in 7.0 mi Calm Calm - N/A   Clear
7:35 AM 39.2 °F - 39.2 °F 100% 30.18 in 9.0 mi Calm Calm - N/A   Clear
7:55 AM 41.0 °F - 41.0 °F 100% 30.18 in 10.0 mi Calm Calm - N/A   Clear
8:15 AM 41.0 °F - 41.0 °F 100% 30.18 in 9.0 mi Calm Calm - N/A   Clear
8:35 AM 44.6 °F - 44.6 °F 100% 30.19 in 10.0 mi Calm Calm - N/A   Clear
8:55 AM 44.6 °F 43.1 °F 44.6 °F 100% 30.19 in 10.0 mi NNE 3.5 mph - N/A   Clear
9:15 AM 46.4 °F 44.3 °F 44.6 °F 93% 30.19 in 10.0 mi NNE 4.6 mph - N/A   Clear
9:35 AM 48.2 °F - 46.4 °F 93% 30.19 in 10.0 mi NE 3.5 mph - N/A   Clear
9:55 AM 48.2 °F - 46.4 °F 93% 30.19 in 10.0 mi NE 4.6 mph - N/A   Clear
10:15 AM 50.0 °F - 46.4 °F 87% 30.18 in 10.0 mi NE 4.6 mph - N/A   Clear
10:35 AM 53.6 °F - 46.4 °F 77% 30.18 in 10.0 mi Calm Calm - N/A   Clear
10:55 AM 55.4 °F - 46.4 °F 72% 30.18 in 10.0 mi Calm Calm - N/A   Clear
11:15 AM 55.4 °F - 46.4 °F 72% 30.17 in 10.0 mi Calm Calm - N/A   Clear
11:35 AM 57.2 °F - 46.4 °F 67% 30.16 in 10.0 mi NNE 3.5 mph - N/A   Clear
11:55 AM 59.0 °F - 44.6 °F 59% 30.15 in 10.0 mi NNE 4.6 mph - N/A   Clear
12:15 PM 59.0 °F - 44.6 °F 59% 30.14 in 10.0 mi NNE 4.6 mph - N/A   Clear
12:35 PM 59.0 °F - 44.6 °F 59% 30.12 in 10.0 mi NE 5.8 mph - N/A   Clear
12:55 PM 59.0 °F - 44.6 °F 59% 30.11 in 10.0 mi NE 4.6 mph - N/A   Clear
1:15 PM 60.8 °F - 44.6 °F 55% 30.10 in 10.0 mi NE 9.2 mph - N/A   Clear
1:35 PM 60.8 °F - 44.6 °F 55% 30.09 in 10.0 mi NE 8.1 mph - N/A   Clear
1:55 PM 59.0 °F - 44.6 °F 59% 30.09 in 10.0 mi NNE 5.8 mph - N/A   Clear
2:15 PM 60.8 °F - 42.8 °F 52% 30.09 in 10.0 mi North 5.8 mph - N/A   Clear
2:35 PM 62.6 °F - 44.6 °F 52% 30.08 in 10.0 mi WSW 5.8 mph - N/A   Clear
2:55 PM 62.6 °F - 44.6 °F 52% 30.07 in 10.0 mi WNW 4.6 mph - N/A   Clear
3:15 PM 62.6 °F - 42.8 °F 48% 30.07 in 10.0 mi Calm Calm - N/A   Clear
3:35 PM 62.6 °F - 42.8 °F 48% 30.07 in 10.0 mi NNW 3.5 mph - N/A   Clear
3:55 PM 62.6 °F - 42.8 °F 48% 30.07 in 10.0 mi NNW 5.8 mph - N/A   Clear
4:15 PM 60.8 °F - 42.8 °F 52% 30.07 in 10.0 mi NW 4.6 mph - N/A   Clear
4:35 PM 59.0 °F - 42.8 °F 55% 30.07 in 10.0 mi NNW 3.5 mph - N/A   Clear
4:55 PM 57.2 °F - 46.4 °F 67% 30.07 in 10.0 mi Calm Calm - N/A   Clear
5:15 PM 53.6 °F - 48.2 °F 82% 30.07 in 10.0 mi Calm Calm - N/A   Clear
5:35 PM 50.0 °F - 48.2 °F 94% 30.07 in 10.0 mi Calm Calm - N/A   Clear
5:55 PM 48.2 °F - 48.2 °F 100% 30.07 in 10.0 mi Calm Calm - N/A   Clear
6:15 PM 46.4 °F - 46.4 °F 100% 30.08 in 10.0 mi Calm Calm - N/A   Clear
6:35 PM 44.6 °F - 44.6 °F 100% 30.09 in 10.0 mi Calm Calm - N/A   Clear
6:55 PM 44.6 °F - 44.6 °F 100% 30.09 in 10.0 mi Calm Calm - N/A   Clear
7:15 PM 42.8 °F - 42.8 °F 100% 30.09 in 10.0 mi Calm Calm - N/A   Clear
7:35 PM 42.8 °F - 42.8 °F 100% 30.09 in 10.0 mi Calm Calm - N/A   Clear
7:55 PM 41.0 °F - 41.0 °F 100% 30.10 in 10.0 mi Calm Calm - N/A   Clear
8:15 PM 41.0 °F - 41.0 °F 100% 30.10 in 10.0 mi Calm Calm - N/A   Clear
8:35 PM 41.0 °F - 41.0 °F 100% 30.10 in 10.0 mi Calm Calm - N/A   Clear
8:55 PM 39.2 °F - 39.2 °F 100% 30.11 in 6.0 mi Calm Calm - N/A   Clear
9:15 PM 39.2 °F - 39.2 °F 100% 30.11 in 8.0 mi Calm Calm - N/A   Clear
9:35 PM 39.2 °F - 39.2 °F 100% 30.11 in 8.0 mi Calm Calm - N/A   Clear
9:55 PM 39.2 °F - 39.2 °F 100% 30.11 in 7.0 mi Calm Calm - N/A   Clear
10:15 PM 37.4 °F - 37.4 °F 100% 30.11 in 7.0 mi Calm Calm - N/A   Clear
10:35 PM 39.2 °F - 39.2 °F 100% 30.11 in 7.0 mi Calm Calm - N/A   Clear
10:55 PM 37.4 °F - 37.4 °F 100% 30.11 in 10.0 mi Calm Calm - N/A   Clear
11:15 PM 37.4 °F - 37.4 °F 100% 30.11 in 7.0 mi Calm Calm - N/A   Clear
11:35 PM 37.4 °F - 37.4 °F 100% 30.11 in 8.0 mi Calm Calm - N/A   Clear
11:55 PM 37.4 °F - 37.4 °F 100% 30.11 in 5.0 mi Calm Calm - N/A   Clear